Temperature
15 16 16 17 14 13 14 16 17 19 20 21 22 21 19 19 20 20 19 19 19 18 18 18 18 18 18 18 17 17 17 17 17 17 17 17 16 16 16 16 16 16 15 15 15 15 15 15 15
15 15 16 16 13 14 14 15 18 19 21 22 22 21 19 18 19 18 18 18 18 18 18 18 18 18 18 18 17 17 17 17 17 17 17 16 16 16 16 16 15 15 15 15 15 15 15 15 14
15 15 15 12 13 14 16 17 18 19 21 21 21 20 19 19 18 18 19 18 18 18 18 18 18 18 17 17 17 17 17 17 16 17 16 16 16 16 16 16 15 15 15 15 15 15 15 15 14
14 15 14 12 14 14 16 18 18 19 21 21 20 18 18 19 19 19 19 18 18 18 17 17 17 17 17 17 17 17 17 16 16 16 16 16 16 16 16 16 15 15 15 15 15 15 15 15 14
14 14 12 12 13 15 16 18 19 18 19 20 19 17 18 18 19 19 18 18 18 17 17 17 17 17 17 17 17 17 16 16 16 16 16 16 16 16 16 15 15 15 15 15 15 15 15 14 14
13 12 11 12 14 15 16 18 19 18 19 19 19 17 17 18 18 18 18 18 18 17 17 17 17 17 17 17 17 16 16 16 16 16 16 16 16 16 15 15 15 15 15 15 15 15 14 14 14
12 11 12 13 14 15 17 19 18 17 18 19 19 16 16 17 17 17 17 17 17 17 17 16 16 16 16 16 16 16 16 16 16 16 16 16 16 15 15 15 15 15 15 15 14 14 14 14 14
13 11 12 13 14 15 17 18 19 18 18 19 19 16 16 16 17 17 17 16 16 16 16 16 16 16 16 16 16 16 16 16 16 15 15 15 15 15 15 15 15 15 15 15 14 14 14 14 14
12 11 12 13 14 15 17 17 18 18 18 18 18 18 18 17 16 16 16 16 16 16 16 16 16 16 16 16 16 15 15 15 15 15 15 15 15 15 15 15 15 14 14 14 14 14 14 14 14
12 10 12 14 14 15 16 17 17 17 16 16 17 17 17 16 16 16 16 16 16 16 16 16 16 16 16 16 15 15 15 15 15 15 15 15 15 15 15 15 14 14 14 14 14 14 14 14 13
11 11 12 14 15 15 16 16 17 16 15 15 16 16 16 16 16 16 16 16 16 16 15 15 15 16 16 16 15 15 15 15 15 15 15 15 15 15 14 14 14 14 14 14 14 14 14 13 13
11 11 13 14 14 15 15 16 16 16 17 18 18 17 16 15 15 15 15 15 15 15 15 15 15 15 15 15 15 15 15 15 15 15 15 15 15 14 14 14 14 14 14 14 14 14 13 13 13
10 11 13 13 14 14 15 15 15 15 17 17 17 16 16 15 15 15 15 15 15 15 15 15 15 15 15 15 15 15 15 15 15 14 14 14 14 14 14 14 14 14 14 14 13 13 13 13 13
10 11 12 13 13 14 14 14 14 15 16 16 16 15 15 15 15 15 15 15 15 15 15 15 15 15 15 15 15 15 15 15 14 14 14 14 14 14 14 14 13 13 13 13 13 13 13 13 13
11 10 11 12 13 13 14 13 13 15 15 15 15 15 15 15 15 15 15 15 15 15 15 15 15 15 15 15 15 15 15 14 14 14 14 14 14 14 14 13 13 13 13 13 13 13 13 12 12
10 9 9 11 12 13 12 11 13 15 15 14 14 15 15 15 15 15 15 15 15 15 15 15 15 15 15 15 15 15 14 14 14 14 14 14 14 13 13 13 13 13 13 13 13 12 12 12 12
8 8 9 10 11 12 11 11 12 14 14 13 14 14 14 14 14 15 15 15 15 15 15 15 15 15 15 15 15 14 14 14 14 14 14 14 13 13 13 13 13 13 13 12 12 12 12 12 12
7 8 8 9 11 11 11 11 11 13 13 13 13 14 14 14 14 15 15 15 15 15 15 15 15 14 14 14 14 14 14 14 14 14 14 13 13 13 13 13 13 12 12 12 12 12 12 12 11
8 8 8 9 11 10 10 10 11 12 12 12 12 13 13 14 15 14 14 15 15 15 15 15 14 14 14 14 14 14 14 14 13 13 13 13 13 13 13 13 12 12 12 12 12 12 11 11 11
8 8 8 9 10 10 10 10 10 11 11 12 13 13 13 14 14 14 14 14 14 14 14 14 14 14 14 14 14 14 14 14 13 13 13 13 13 13 12 12 12 12 12 12 11 11 11 11 11
8 8 8 8 9 10 9 9 10 11 12 12 13 13 13 13 14 14 14 14 14 14 14 14 14 14 14 14 13 13 13 13 13 13 12 12 12 12 12 12 12 12 11 11 11 11 11 11 10
7 8 9 9 8 8 9 8 9 10 10 11 11 12 12 13 13 14 14 14 14 14 14 14 14 14 14 13 13 13 13 13 13 13 12 12 12 12 12 12 11 11 11 11 11 11 10 10 10
7 9 8 8 8 7 8 8 8 9 9 10 9 11 11 12 12 13 13 14 14 14 14 14 14 14 14 13 13 13 13 13 13 12 12 12 12 11 11 11 11 11 11 11 10 10 10 10 10
8 8 7 7 7 7 7 8 8 8 9 9 9 10 11 11 12 12 13 13 14 14 13 14 14 14 13 13 13 13 13 12 12 12 12 11 11 11 11 11 10 10 10 10 10 10 9 9 9
7 6 6 6 6 6 7 8 8 8 8 8 8 9 10 11 11 12 12 12 13 13 13 13 13 13 13 13 13 12 12 12 12 12 12 11 11 11 11 10 10 10 10 10 9 9 9 9 8
6 6 6 6 6 6 7 7 7 7 7 8 9 9 9 10 11 11 11 12 12 12 12 13 12 12 12 12 12 12 12 12 11 11 11 11 11 11 10 10 10 10 10 9 9 9 9 8 8
6 6 6 5 5 5 6 6 7 7 7 7 7 7 8 9 10 10 11 11 11 12 12 12 12 12 12 12 12 11 11 11 11 11 10 10 10 10 10 10 10 9 9 9 9 8 8 8 8
6 6 5 5 5 6 6 6 6 6 6 6 6 6 7 8 9 9 10 10 10 11 11 11 11 11 11 11 11 11 11 10 10 10 10 10 10 10 9 9 9 9 9 9 8 8 8 8 7
5 5 5 5 5 5 6 6 6 5 5 5 5 6 6 7 8 8 9 9 9 10 10 10 10 10 10 10 10 10 10 10 10 10 9 9 9 9 9 9 9 9 8 8 8 8 7 7 7
5 4 4 4 4 4 4 5 5 4 4 4 4 5 5 6 6 7 8 8 8 9 9 9 9 9 10 10 10 9 9 9 9 9 9 9 9 8 8 8 8 8 8 8 8 7 7 7 7
Wind_Speed
7 6 2 3 5 3 5 6 5 3 2 2 2 7 8 5 4 5 4 11 14 15 17 20 21 21 20 19 19 19 18 18 17 17 17 16 16 16 15 15 15 15 15 15 15 15 15 15 14
4 2 3 4 4 3 6 7 7 7 5 2 3 5 6 3 3 7 7 12 16 16 17 19 21 21 21 20 19 19 18 17 17 17 16 16 16 16 15 15 15 15 15 15 15 15 14 14 13
3 0 3 4 5 8 6 6 9 6 4 2 2 4 5 5 4 5 8 15 15 13 16 19 22 22 21 21 20 19 18 18 17 17 16 16 16 15 15 15 14 14 15 14 14 14 13 13 13
2 3 3 2 8 8 6 5 3 2 2 0 4 4 3 0 4 7 14 16 15 12 15 19 22 22 21 21 20 19 18 18 17 17 16 16 15 15 15 14 14 14 14 14 14 13 13 12 12
2 3 2 4 8 7 6 6 4 2 1 0 4 5 2 5 7 15 15 16 16 12 14 19 21 21 21 21 20 19 18 18 17 17 16 16 15 15 14 14 14 13 14 13 13 13 12 12 12
2 3 4 8 8 6 6 6 3 3 2 1 4 5 1 2 10 13 14 14 14 13 13 17 20 20 20 20 19 19 18 18 17 16 16 15 15 14 14 13 13 13 13 12 12 12 11 11 11
3 4 6 6 5 6 6 4 4 4 3 3 5 6 3 3 7 11 13 13 12 12 12 13 16 18 19 19 18 18 18 17 16 16 15 15 14 14 13 13 13 12 12 11 11 11 10 10 10
3 3 5 5 6 6 4 2 2 4 3 0 4 8 6 6 7 11 12 12 12 11 10 11 13 15 16 16 18 18 17 16 16 15 15 14 14 13 13 12 12 11 11 11 10 10 9 9 10
2 2 7 6 5 4 3 2 2 0 2 2 1 4 6 9 10 14 13 11 11 11 9 10 11 12 14 15 16 17 16 16 16 15 15 14 12 12 11 11 11 11 10 10 9 9 9 8 9
3 6 8 4 3 3 2 2 2 1 1 2 3 3 7 10 13 14 15 15 14 13 11 9 10 11 12 12 13 13 13 14 13 13 13 12 12 10 10 11 11 10 10 9 9 8 7 7 8
4 6 5 5 3 3 2 3 1 4 3 5 6 7 9 10 12 12 13 14 15 14 12 10 10 11 11 9 10 10 10 11 11 12 12 11 10 9 8 8 8 8 8 7 7 7 6 6 6
3 6 5 4 4 4 3 2 2 4 6 6 9 13 13 12 13 13 12 12 12 13 12 11 11 10 10 10 9 9 8 8 9 11 12 11 8 7 7 6 7 6 6 6 6 5 5 5 5
6 6 6 6 5 5 4 4 3 5 4 4 8 11 13 13 10 9 11 11 11 13 13 13 11 11 10 9 8 8 8 8 10 11 11 11 8 5 6 6 6 6 6 6 5 4 4 4 4
5 5 6 6 5 4 4 6 3 5 2 6 9 11 12 12 11 9 10 11 11 12 13 12 13 11 11 8 7 8 8 9 10 10 11 12 10 8 6 5 5 5 6 6 5 5 4 3 3
3 3 6 6 5 3 1 5 7 6 3 6 9 10 10 10 11 12 13 13 12 12 13 12 13 12 11 9 9 8 9 10 9 9 11 12 11 10 8 5 4 5 6 6 5 4 4 3 3
1 2 5 6 5 4 4 9 7 5 5 7 7 8 9 9 10 10 11 11 12 11 12 13 12 12 11 10 8 8 9 9 8 10 10 11 12 11 9 5 4 6 7 6 4 3 3 2 2
2 5 7 6 5 3 5 8 7 5 6 7 8 8 8 8 8 8 10 12 12 12 12 12 11 12 11 10 8 8 8 8 8 9 9 10 11 11 9 6 6 8 6 4 3 2 2 2 2
6 4 5 7 5 4 6 8 8 5 7 8 8 8 8 9 10 8 9 10 11 11 11 12 11 11 10 8 6 5 5 5 6 7 8 10 10 11 10 7 7 7 4 3 3 3 2 2 2
4 4 6 8 5 4 8 10 10 7 6 8 8 9 9 10 8 7 8 9 9 9 10 11 12 11 10 8 7 7 6 5 4 5 8 10 10 10 9 6 6 5 4 4 4 3 3 2 2
3 4 6 6 4 4 6 10 9 7 7 9 10 11 11 8 5 7 8 8 10 11 11 11 12 12 10 8 7 5 5 4 4 4 6 9 9 10 9 7 5 5 4 4 4 3 2 1 2
5 6 5 4 4 2 2 6 7 6 6 7 8 9 9 10 10 10 9 9 10 11 12 12 12 11 10 9 7 6 4 3 3 3 3 5 9 9 9 8 6 5 4 4 4 4 4 2 1
6 5 4 4 1 3 3 4 7 5 6 7 7 6 7 8 8 9 10 10 10 11 10 11 11 11 11 11 10 11 8 7 6 5 4 5 7 8 9 8 7 5 4 4 4 3 3 4 2
5 4 4 4 3 2 2 3 7 3 5 7 6 5 5 6 7 8 9 10 10 10 9 10 10 10 10 10 11 11 7 5 4 5 5 4 4 6 7 8 7 5 4 4 4 4 3 3 3
2 1 2 1 2 4 5 5 5 3 5 6 5 3 4 5 5 6 5 5 6 7 8 9 10 10 10 10 10 10 10 9 8 7 6 5 3 3 5 6 6 5 4 4 4 4 4 3 3
2 3 1 0 2 5 4 4 6 5 4 4 3 2 2 3 5 4 4 3 5 7 8 9 11 10 10 10 10 10 10 10 11 9 8 6 4 3 4 5 4 4 4 4 4 3 3 3 3
3 5 5 4 4 3 1 5 4 4 4 3 2 1 1 1 2 3 4 4 4 6 7 8 9 9 10 10 9 8 9 7 7 7 7 6 5 4 5 5 5 4 4 4 4 2 2 2 3
2 3 4 3 1 2 4 4 4 6 7 7 6 6 5 2 2 2 2 3 3 5 6 8 8 8 8 9 8 8 7 7 7 6 5 4 4 4 5 5 4 4 4 4 3 3 3 3 3
2 3 2 3 3 3 3 3 3 6 6 6 6 5 4 4 3 2 1 1 2 3 4 5 7 7 6 6 7 7 7 7 7 6 6 5 5 5 5 4 4 4 3 3 3 3 2 3 2
1 1 1 2 2 3 3 3 2 3 4 3 4 4 4 4 3 2 2 2 3 4 4 4 5 5 5 5 6 6 6 6 6 6 6 5 5 5 5 5 4 4 4 3 3 3 3 3 2
2 1 2 2 2 1 2 4 4 2 3 3 4 5 5 5 5 5 4 4 4 4 4 4 4 4 4 5 6 6 6 6 6 5 5 5 5 4 4 4 4 3 3 3 4 4 3 3 3
Wind_Direction
323 334 49 58 65 69 230 242 238 255 236 229 136 116 122 126 152 161 127 137 137 146 151 150 147 143 139 135 132 129 125 122 119 117 114 112 110 109 108 106 105 103 101 99 97 95 95 94 91
339 348 60 69 118 188 246 238 237 238 213 172 98 98 94 87 89 114 126 143 141 145 149 150 147 144 141 137 135 132 129 125 123 120 117 114 113 111 110 108 107 105 103 100 97 95 94 92 90
333 30 98 106 168 198 221 228 222 246 260 212 100 70 111 129 131 140 148 143 137 141 146 149 147 145 143 140 138 136 132 129 126 123 119 117 115 114 114 112 110 107 104 103 100 97 95 91 89
49 63 71 144 219 222 217 231 211 231 312 8 122 78 64 28 164 143 139 139 135 136 142 148 148 146 145 142 140 138 136 133 129 126 123 121 118 116 115 114 112 109 107 105 104 100 97 93 89
70 102 142 221 234 242 240 254 252 227 231 247 111 109 50 345 117 128 137 140 138 137 140 147 147 147 146 144 142 141 139 136 133 130 128 125 122 119 117 115 114 113 111 109 108 104 99 93 88
100 113 169 219 232 248 256 248 243 242 225 176 108 114 114 68 120 134 137 137 138 139 139 145 145 144 145 144 144 144 142 140 137 134 132 129 126 123 121 118 116 115 114 113 110 106 101 94 90
156 159 198 211 225 246 248 235 205 214 215 204 139 119 133 144 138 136 134 133 134 136 137 139 143 144 144 143 143 144 143 142 140 138 135 131 129 127 124 123 120 118 115 115 114 110 104 97 93
166 160 208 213 208 234 249 229 215 185 204 226 122 139 166 185 142 130 130 131 134 136 138 139 140 142 142 143 143 142 141 141 141 138 133 130 129 128 126 125 124 122 120 118 116 112 105 98 93
134 183 214 207 198 235 253 214 271 198 113 47 68 162 166 144 131 131 132 134 141 145 146 145 141 140 141 142 144 143 141 140 137 135 134 131 127 126 127 129 127 124 122 119 116 112 105 98 91
157 205 221 222 211 242 265 229 233 77 51 44 35 45 117 130 140 144 152 154 156 158 159 154 149 146 144 146 145 143 143 141 138 139 137 134 132 132 131 132 130 127 125 120 114 107 103 94 88
188 213 237 269 294 293 278 279 254 150 209 193 172 159 147 146 152 157 162 164 165 163 161 161 157 153 149 145 146 144 143 143 142 142 141 137 133 131 130 129 128 126 122 113 107 99 94 93 96
223 249 248 267 293 289 270 266 283 210 218 207 176 162 159 164 168 169 168 168 165 162 163 163 161 158 154 150 151 148 144 143 143 147 146 140 135 132 134 135 135 132 127 117 109 104 98 96 100
237 262 263 269 284 282 281 262 253 265 264 168 160 162 168 173 178 176 170 167 166 165 166 166 163 160 157 151 155 152 150 151 151 150 151 147 142 140 141 140 139 140 137 130 121 115 108 99 96
228 265 272 271 271 278 267 273 250 252 193 154 170 181 181 181 179 174 172 173 174 171 168 167 166 163 158 158 158 155 154 153 150 153 159 155 150 147 141 140 141 144 146 142 137 133 124 113 107
238 266 281 263 247 250 238 275 238 234 177 175 189 193 193 191 185 184 183 179 177 174 169 169 168 163 162 160 160 156 156 154 152 157 161 158 155 152 148 140 142 153 151 141 128 117 110 108 106
198 227 246 258 224 227 178 244 251 229 189 202 206 206 204 203 197 194 189 180 176 170 168 169 169 164 163 161 157 155 155 154 156 158 160 160 159 156 150 145 146 149 141 136 126 118 111 109 118
176 221 230 256 226 206 195 238 256 230 201 214 219 217 212 213 213 205 195 183 176 172 168 168 166 165 165 160 155 151 150 151 155 156 156 159 157 155 149 145 146 143 133 132 137 125 125 120 113
205 216 226 230 231 210 226 247 267 238 210 220 224 223 217 213 215 207 195 183 176 172 168 166 163 164 160 152 141 139 139 145 148 153 156 154 152 152 147 141 140 139 128 128 132 129 114 121 125
204 214 243 248 241 217 234 252 262 255 232 231 230 225 221 221 216 199 188 176 168 166 165 167 165 165 160 158 158 159 164 162 157 155 155 155 152 150 146 137 136 135 142 150 145 129 123 116 116
227 231 245 264 257 224 241 257 260 253 235 224 221 222 221 217 206 194 186 179 174 172 171 169 167 167 168 169 166 162 155 156 156 149 149 156 153 152 151 141 144 141 143 142 146 131 129 141 130
241 223 228 247 304 262 229 275 258 268 255 245 227 217 211 205 199 193 186 185 178 177 178 176 173 169 166 159 147 135 120 113 130 151 160 158 156 152 150 150 146 147 152 165 169 155 148 164 199
241 230 231 240 239 254 176 250 265 251 262 257 246 228 212 208 200 191 187 185 186 188 183 176 172 168 165 160 160 161 165 171 181 175 168 158 155 154 155 154 153 152 153 166 176 168 162 155 183
235 246 239 233 208 270 219 208 279 276 260 265 256 238 220 208 197 192 192 191 187 183 180 176 170 169 167 166 166 166 167 169 154 150 149 154 151 153 156 156 154 156 159 167 168 168 165 171 180
246 27 28 43 124 236 218 194 274 263 247 266 265 251 221 207 197 187 182 177 177 175 173 172 168 170 168 166 166 169 167 163 158 163 166 166 163 157 157 155 152 155 158 167 172 174 172 182 184
111 108 94 276 221 238 191 192 251 287 290 263 260 254 220 195 183 166 157 158 167 170 173 173 170 171 171 170 171 175 173 171 173 174 174 171 172 176 182 164 156 155 157 156 153 166 178 184 184
212 166 169 192 211 260 194 221 257 319 338 348 359 20 57 83 147 156 163 167 172 176 172 170 172 172 172 174 176 175 172 174 178 175 172 175 180 183 173 164 159 156 152 151 148 162 180 180 192
180 200 195 162 216 219 241 273 301 347 2 14 19 25 29 32 77 126 135 138 152 166 168 167 166 166 169 173 169 168 168 167 166 161 160 162 166 162 156 158 160 157 156 157 157 182 195 189 199
177 176 126 146 167 225 253 242 275 322 332 356 9 9 3 21 37 35 60 100 126 147 147 147 152 159 160 159 165 164 163 161 157 151 156 161 164 159 157 157 162 166 164 164 171 185 193 186 209
66 164 160 168 171 174 208 253 306 297 310 335 348 360 8 24 32 30 32 57 80 97 108 118 130 132 141 148 147 144 150 151 153 157 162 163 158 160 163 162 164 172 176 175 177 190 188 192 214
139 184 163 170 235 202 180 264 333 346 3 22 13 10 18 26 27 28 37 54 68 83 100 110 116 124 134 137 137 140 140 142 146 154 160 157 156 159 160 156 161 166 170 176 181 191 196 202 216
Height
1510 1511 1513 1515 1518 1527 1525 1516 1507 1501 1499 1497 1496 1496 1499 1503 1507 1512 1509 1509 1513 1516 1520 1523 1526 1528 1530 1532 1534 1536 1537 1538 1539 1540 1540 1541 1542 1542 1543 1543 1544 1545 1545 1546 1546 1547 1547 1547 1548
1509 1511 1513 1514 1522 1530 1523 1510 1504 1498 1496 1496 1496 1497 1498 1502 1503 1505 1506 1510 1513 1516 1520 1523 1526 1528 1530 1532 1534 1536 1538 1539 1540 1541 1541 1542 1543 1543 1544 1544 1545 1546 1546 1547 1547 1548 1548 1548 1549
1508 1510 1512 1514 1520 1521 1513 1502 1498 1495 1495 1495 1496 1498 1499 1502 1503 1504 1506 1510 1513 1517 1520 1523 1526 1528 1531 1533 1535 1537 1538 1539 1541 1542 1542 1543 1544 1544 1545 1545 1546 1547 1547 1548 1548 1549 1549 1550 1550
1508 1510 1511 1516 1514 1508 1502 1496 1495 1494 1494 1494 1495 1499 1501 1503 1503 1504 1507 1510 1513 1516 1520 1523 1526 1528 1531 1533 1535 1537 1539 1540 1541 1542 1543 1544 1545 1546 1546 1547 1547 1548 1548 1549 1549 1550 1550 1551 1551
1506 1508 1512 1514 1509 1502 1497 1494 1494 1494 1494 1494 1495 1498 1501 1503 1503 1505 1507 1510 1513 1516 1520 1523 1526 1529 1531 1533 1535 1537 1539 1540 1542 1543 1544 1545 1546 1546 1547 1548 1548 1549 1549 1550 1550 1551 1551 1552 1552
1505 1506 1513 1512 1505 1498 1494 1493 1494 1493 1494 1494 1495 1498 1502 1503 1504 1506 1508 1511 1514 1517 1520 1523 1526 1529 1531 1533 1535 1537 1539 1541 1542 1544 1545 1546 1546 1547 1548 1548 1549 1549 1550 1551 1551 1552 1552 1553 1553
1504 1505 1507 1505 1502 1498 1493 1492 1493 1493 1493 1493 1494 1498 1501 1504 1505 1506 1509 1512 1515 1517 1520 1523 1526 1528 1531 1533 1535 1537 1539 1541 1543 1544 1545 1546 1547 1548 1548 1549 1550 1550 1551 1551 1552 1552 1553 1553 1554
1500 1503 1502 1502 1499 1496 1491 1491 1491 1491 1492 1493 1493 1495 1499 1502 1505 1507 1510 1512 1515 1518 1520 1523 1525 1528 1530 1533 1535 1537 1539 1541 1543 1544 1546 1547 1548 1548 1549 1550 1550 1551 1551 1552 1552 1553 1553 1554 1554
1499 1503 1501 1497 1496 1493 1489 1489 1490 1490 1491 1491 1492 1493 1495 1500 1503 1506 1509 1512 1515 1517 1520 1522 1525 1527 1530 1532 1535 1537 1539 1541 1543 1544 1546 1547 1548 1549 1549 1550 1551 1551 1552 1552 1553 1553 1554 1554 1555
1497 1499 1494 1491 1490 1489 1488 1488 1489 1489 1490 1490 1491 1492 1495 1498 1501 1504 1506 1509 1512 1515 1518 1521 1524 1526 1529 1532 1534 1536 1539 1540 1542 1544 1545 1547 1548 1549 1549 1550 1551 1552 1552 1553 1553 1554 1554 1555 1555
1493 1493 1490 1489 1488 1488 1487 1487 1487 1488 1489 1489 1489 1491 1493 1496 1499 1502 1505 1507 1510 1514 1517 1520 1523 1526 1528 1530 1533 1535 1538 1540 1542 1543 1545 1546 1547 1548 1549 1550 1551 1551 1552 1553 1553 1554 1554 1555 1555
1492 1489 1489 1488 1487 1487 1487 1487 1487 1486 1486 1486 1488 1489 1491 1494 1497 1500 1503 1506 1510 1512 1515 1519 1522 1524 1527 1530 1532 1534 1537 1539 1541 1542 1544 1545 1546 1547 1548 1549 1550 1551 1552 1552 1553 1554 1554 1555 1555
1490 1488 1488 1487 1487 1486 1485 1486 1485 1484 1484 1485 1486 1488 1490 1492 1496 1499 1502 1505 1508 1511 1514 1517 1520 1523 1526 1528 1531 1533 1535 1538 1540 1541 1543 1544 1546 1547 1548 1549 1550 1550 1551 1552 1553 1553 1554 1554 1555
1488 1488 1487 1486 1485 1485 1484 1484 1484 1482 1483 1484 1485 1486 1489 1491 1494 1497 1500 1503 1506 1509 1512 1516 1518 1522 1524 1527 1529 1532 1534 1536 1539 1540 1542 1544 1545 1546 1547 1548 1549 1550 1551 1551 1552 1553 1553 1554 1554
1487 1488 1487 1484 1483 1483 1484 1484 1482 1481 1482 1483 1483 1485 1487 1490 1492 1494 1497 1501 1504 1507 1511 1514 1517 1520 1523 1525 1528 1530 1532 1535 1537 1539 1541 1542 1544 1545 1546 1547 1548 1549 1550 1550 1551 1552 1552 1553 1553
1487 1490 1490 1483 1482 1482 1487 1486 1479 1479 1480 1481 1482 1483 1485 1487 1490 1492 1495 1499 1502 1505 1508 1511 1515 1518 1520 1523 1526 1528 1531 1533 1535 1537 1539 1541 1542 1544 1545 1546 1547 1548 1548 1549 1550 1550 1551 1551 1551
1490 1492 1489 1484 1480 1480 1483 1483 1477 1477 1478 1479 1479 1481 1483 1485 1488 1490 1493 1496 1499 1502 1506 1509 1512 1515 1518 1521 1524 1526 1529 1531 1533 1535 1537 1539 1540 1542 1543 1544 1545 1546 1547 1548 1548 1549 1549 1550 1550
1490 1490 1487 1485 1479 1479 1481 1479 1475 1474 1475 1476 1477 1478 1479 1481 1483 1486 1490 1493 1497 1500 1503 1507 1510 1513 1516 1519 1522 1524 1527 1529 1531 1533 1535 1537 1538 1540 1541 1542 1543 1544 1545 1546 1546 1547 1548 1548 1548
1484 1486 1486 1482 1477 1478 1478 1477 1473 1471 1472 1473 1474 1474 1475 1477 1480 1484 1487 1490 1494 1497 1500 1503 1506 1509 1512 1515 1517 1520 1523 1526 1528 1531 1532 1534 1536 1537 1539 1540 1541 1542 1543 1544 1545 1545 1546 1546 1547
1482 1484 1484 1480 1476 1477 1477 1475 1471 1469 1469 1469 1470 1471 1472 1474 1477 1480 1483 1486 1489 1493 1496 1500 1503 1506 1509 1512 1515 1518 1520 1523 1525 1528 1530 1532 1533 1535 1536 1537 1539 1540 1541 1541 1542 1543 1543 1543 1544
1481 1482 1482 1481 1477 1475 1478 1476 1470 1466 1465 1465 1465 1467 1468 1470 1472 1476 1479 1482 1485 1488 1492 1495 1499 1502 1505 1509 1512 1515 1518 1520 1522 1524 1526 1528 1530 1532 1533 1535 1536 1537 1538 1539 1539 1540 1540 1541 1541
1481 1477 1478 1478 1482 1483 1480 1485 1472 1467 1464 1462 1462 1463 1464 1466 1469 1471 1475 1478 1481 1484 1488 1491 1495 1498 1502 1505 1508 1510 1512 1515 1517 1520 1523 1525 1527 1529 1530 1532 1533 1534 1535 1536 1537 1537 1538 1538 1538
1477 1474 1476 1477 1481 1484 1481 1485 1475 1467 1465 1462 1461 1461 1461 1463 1465 1467 1470 1474 1477 1481 1484 1488 1491 1495 1498 1501 1504 1507 1510 1512 1515 1518 1520 1522 1524 1526 1527 1528 1530 1530 1531 1532 1533 1534 1535 1535 1535
1475 1475 1476 1479 1483 1486 1480 1482 1477 1470 1464 1461 1459 1459 1459 1460 1463 1465 1467 1471 1474 1478 1481 1484 1487 1491 1494 1497 1500 1503 1506 1509 1511 1514 1516 1518 1521 1522 1524 1525 1526 1527 1528 1529 1530 1531 1531 1532 1532
1476 1481 1488 1489 1489 1484 1476 1477 1474 1466 1462 1460 1458 1457 1457 1458 1460 1461 1464 1467 1470 1474 1478 1481 1484 1487 1490 1494 1497 1500 1503 1505 1508 1510 1512 1515 1516 1518 1520 1521 1522 1524 1525 1526 1527 1527 1528 1528 1529
1477 1479 1487 1490 1488 1483 1476 1476 1471 1465 1461 1458 1457 1456 1456 1457 1457 1459 1461 1464 1467 1470 1474 1477 1480 1483 1487 1490 1493 1497 1499 1502 1504 1507 1509 1511 1513 1515 1516 1518 1519 1520 1521 1522 1523 1523 1524 1524 1525
1476 1479 1478 1484 1486 1486 1481 1475 1468 1463 1460 1459 1457 1456 1455 1456 1457 1458 1460 1462 1464 1467 1470 1474 1477 1480 1483 1486 1490 1493 1496 1498 1500 1503 1505 1507 1509 1511 1513 1514 1516 1517 1518 1518 1519 1519 1520 1520 1521
1475 1476 1480 1484 1486 1485 1480 1477 1475 1468 1464 1462 1460 1458 1457 1456 1457 1458 1459 1460 1463 1465 1468 1471 1474 1477 1480 1483 1486 1489 1492 1495 1497 1499 1502 1504 1506 1508 1509 1511 1512 1513 1514 1515 1515 1516 1516 1516 1516
1477 1478 1479 1481 1481 1482 1482 1480 1472 1470 1467 1465 1463 1461 1459 1458 1458 1458 1459 1460 1462 1463 1466 1468 1472 1474 1477 1480 1483 1486 1489 1492 1494 1496 1498 1501 1502 1504 1506 1507 1508 1509 1510 1511 1511 1512 1512 1512 1512
1476 1478 1480 1482 1484 1483 1483 1483 1471 1469 1467 1465 1464 1462 1460 1459 1459 1458 1458 1459 1461 1462 1465 1467 1469 1472 1475 1478 1480 1483 1486 1489 1491 1493 1495 1497 1499 1501 1502 1504 1505 1506 1506 1507 1508 1508 1508 1509 1508